• en France
  • Liste des pays
  • À 7 jours
  • Température de l'eau
  • Carte satellitaire
  • Carte météo
  • Widgets météo
  • user-avatar
    Se connecter

    Météo par heure à Pointe-Noire

    Ce jour, 25 Mai, Vendredi

    Heure Température Précipitation Vent Pression Humidité
    00:00 +24°C° 0 mm 1 m/s 721 mmHg 99%
    01:00 +21°C° 0 mm 0 m/s 720 mmHg 99%
    02:00 +21°C° 0 mm 0 m/s 720 mmHg 99%
    03:00 +21°C° 0 mm 0 m/s 720 mmHg 99%
    04:00 +21°C° 0 mm 0 m/s 720 mmHg 99%
    05:00 +21°C° 0 mm 0 m/s 720 mmHg 99%
    06:00 +21°C° 0 mm 0 m/s 721 mmHg 98%
    07:00 +22°C° 0 mm 0 m/s 721 mmHg 98%
    08:00 +25°C° 0 mm 1 m/s 721 mmHg 92%
    09:00 +26°C° 0 mm 1 m/s 721 mmHg 87%
    10:00 +27°C° 0 mm 1 m/s 721 mmHg 82%
    11:00 +29°C° 0,5 mm 1 m/s 721 mmHg 78%
    12:00 +30°C° 0,5 mm 1 m/s 720 mmHg 74%
    13:00 +32°C° 0 mm 1 m/s 720 mmHg 61%
    14:00 +32°C° 0,9 mm 1 m/s 720 mmHg 65%
    15:00 +31°C° 0,9 mm 1 m/s 719 mmHg 69%
    16:00 +31°C° 0,9 mm 1 m/s 719 mmHg 73%
    17:00 +29°C° 1 mm 1 m/s 719 mmHg 80%
    18:00 +27°C° 1 mm 1 m/s 719 mmHg 88%
    19:00 +25°C° 1 mm 1 m/s 720 mmHg 95%
    20:00 +25°C° 1 mm 1 m/s 720 mmHg 96%
    21:00 +24°C° 1 mm 1 m/s 720 mmHg 97%
    22:00 +24°C° 1 mm 1 m/s 721 mmHg 97%
    23:00 +24°C° 0,3 mm 1 m/s 721 mmHg 98%

    Demain, 26 Mai, Samedi

    Heure Température Précipitation Vent Pression Humidité
    00:00 +24°C° 0,3 mm 1 m/s 721 mmHg 98%
    01:00 +24°C° 0,3 mm 1 m/s 721 mmHg 98%
    02:00 +23°C° 0 mm 1 m/s 720 mmHg 98%
    03:00 +23°C° 0 mm 1 m/s 720 mmHg 99%
    04:00 +23°C° 0 mm 1 m/s 720 mmHg 99%
    05:00 +23°C° 0 mm 1 m/s 720 mmHg 98%
    06:00 +24°C° 0 mm 1 m/s 721 mmHg 98%
    07:00 +22°C° 0 mm 0 m/s 721 mmHg 97%
    08:00 +25°C° 0 mm 1 m/s 721 mmHg 89%
    09:00 +27°C° 0 mm 1 m/s 721 mmHg 82%
    10:00 +28°C° 0 mm 1 m/s 722 mmHg 74%
    11:00 +30°C° 0,3 mm 1 m/s 721 mmHg 70%
    12:00 +31°C° 0,3 mm 1 m/s 721 mmHg 67%
    13:00 +32°C° 0,3 mm 1 m/s 720 mmHg 63%
    14:00 +32°C° 0,5 mm 1 m/s 720 mmHg 65%
    15:00 +32°C° 0,5 mm 1 m/s 719 mmHg 66%
    16:00 +31°C° 0,5 mm 1 m/s 719 mmHg 67%
    17:00 +29°C° 0,4 mm 1 m/s 719 mmHg 74%
    18:00 +28°C° 0,4 mm 1 m/s 719 mmHg 81%
    19:00 +26°C° 0,4 mm 1 m/s 720 mmHg 88%
    20:00 +25°C° 0,8 mm 1 m/s 720 mmHg 91%
    21:00 +25°C° 0,8 mm 1 m/s 721 mmHg 94%
    22:00 +24°C° 0,8 mm 1 m/s 721 mmHg 96%
    23:00 +24°C° 1 mm 1 m/s 721 mmHg 97%

    Après-demain, 27 Mai, Dimanche

    Heure Température Précipitation Vent Pression Humidité
    00:00 +24°C° 1 mm 1 m/s 721 mmHg 98%
    01:00 +24°C° 1 mm 1 m/s 721 mmHg 99%
    02:00 +24°C° 0 mm 1 m/s 721 mmHg 99%
    03:00 +24°C° 0 mm 1 m/s 721 mmHg 99%
    04:00 +23°C° 0 mm 1 m/s 720 mmHg 99%
    05:00 +24°C° 0 mm 1 m/s 721 mmHg 99%
    06:00 +24°C° 0 mm 1 m/s 721 mmHg 98%
    07:00 +24°C° 0 mm 1 m/s 722 mmHg 98%
    08:00 +25°C° 0 mm 1 m/s 722 mmHg 93%
    09:00 +26°C° 0 mm 1 m/s 723 mmHg 87%
    10:00 +27°C° 0 mm 1 m/s 723 mmHg 82%
    11:00 +29°C° 0,1 mm 1 m/s 723 mmHg 73%
    12:00 +31°C° 0,1 mm 1 m/s 722 mmHg 64%
    13:00 +33°C° 0,1 mm 1 m/s 722 mmHg 55%
    14:00 +32°C° 0,6 mm 1 m/s 721 mmHg 61%
    15:00 +31°C° 0,6 mm 1 m/s 721 mmHg 67%
    16:00 +31°C° 0,6 mm 1 m/s 720 mmHg 72%
    17:00 +29°C° 0,8 mm 1 m/s 720 mmHg 78%
    18:00 +27°C° 0,8 mm 1 m/s 721 mmHg 84%
    19:00 +26°C° 0,8 mm 1 m/s 721 mmHg 90%
    20:00 +25°C° 1,4 mm 1 m/s 722 mmHg 92%
    21:00 +25°C° 1,4 mm 1 m/s 722 mmHg 94%
    22:00 +24°C° 1,4 mm 1 m/s 723 mmHg 96%
    23:00 +24°C° 0 mm 1 m/s 723 mmHg 97%

    28 Mai, Lundi

    Heure Température Précipitation Vent Pression Humidité
    00:00 +24°C° 0 mm 1 m/s 722 mmHg 98%
    01:00 +23°C° 0 mm 1 m/s 722 mmHg 98%
    02:00 +23°C° 0 mm 1 m/s 722 mmHg 98%
    03:00 +23°C° 0 mm 1 m/s 721 mmHg 99%
    04:00 +23°C° 0 mm 1 m/s 721 mmHg 99%
    05:00 +24°C° 0 mm 1 m/s 722 mmHg 98%
    06:00 +22°C° 0 mm 0 m/s 722 mmHg 98%
    07:00 +22°C° 0 mm 0 m/s 723 mmHg 98%
    08:00 +25°C° 0 mm 1 m/s 723 mmHg 92%
    09:00 +26°C° 0 mm 1 m/s 723 mmHg 87%
    10:00 +27°C° 0 mm 1 m/s 724 mmHg 82%
    11:00 +28°C° 0,1 mm 1 m/s 723 mmHg 77%
    12:00 +29°C° 0,1 mm 1 m/s 723 mmHg 72%
    13:00 +30°C° 0,1 mm 2 m/s 722 mmHg 67%
    14:00 +30°C° 0,3 mm 2 m/s 721 mmHg 71%
    15:00 +29°C° 0,3 mm 2 m/s 721 mmHg 75%
    16:00 +28°C° 0,3 mm 2 m/s 720 mmHg 80%
    17:00 +27°C° 0,1 mm 2 m/s 721 mmHg 84%
    18:00 +26°C° 0,1 mm 1 m/s 721 mmHg 89%
    19:00 +25°C° 0,1 mm 1 m/s 722 mmHg 94%
    20:00 +25°C° 0 mm 1 m/s 722 mmHg 95%
    21:00 +24°C° 0 mm 1 m/s 722 mmHg 97%
    22:00 +24°C° 0 mm 1 m/s 723 mmHg 98%
    23:00 +24°C° 0 mm 1 m/s 722 mmHg 98%

    29 Mai, Mardi

    Heure Température Précipitation Vent Pression Humidité
    00:00 +23°C° 0 mm 1 m/s 722 mmHg 98%
    01:00 +23°C° 0 mm 1 m/s 722 mmHg 98%
    02:00 +23°C° 0 mm 1 m/s 722 mmHg 97%
    03:00 +23°C° 0 mm 1 m/s 722 mmHg 97%
    04:00 +23°C° 0 mm 1 m/s 721 mmHg 96%
    05:00 +24°C° 0 mm 1 m/s 722 mmHg 96%
    06:00 +24°C° 0 mm 1 m/s 722 mmHg 95%
    07:00 +24°C° 0 mm 1 m/s 723 mmHg 95%
    08:00 +26°C° 0 mm 1 m/s 723 mmHg 86%
    09:00 +28°C° 0 mm 1 m/s 723 mmHg 76%
    10:00 +30°C° 0 mm 1 m/s 724 mmHg 67%
    11:00 +31°C° 0,1 mm 1 m/s 723 mmHg 63%
    12:00 +32°C° 0,1 mm 1 m/s 722 mmHg 59%
    13:00 +33°C° 0,1 mm 1 m/s 721 mmHg 56%
    14:00 +32°C° 0,9 mm 1 m/s 721 mmHg 65%
    15:00 +31°C° 0,9 mm 1 m/s 720 mmHg 74%
    16:00 +30°C° 0,9 mm 1 m/s 720 mmHg 83%
    17:00 +28°C° 1,2 mm 1 m/s 720 mmHg 87%
    18:00 +27°C° 1,2 mm 1 m/s 721 mmHg 91%
    19:00 +25°C° 1,2 mm 1 m/s 721 mmHg 95%
    20:00 +25°C° 0,3 mm 1 m/s 721 mmHg 96%
    21:00 +24°C° 0,3 mm 1 m/s 722 mmHg 97%
    22:00 +24°C° 0,3 mm 1 m/s 722 mmHg 98%
    23:00 +24°C° 0,2 mm 1 m/s 722 mmHg 98%

    30 Mai, Mercredi

    Heure Température Précipitation Vent Pression Humidité
    00:00 +24°C° 0,2 mm 1 m/s 721 mmHg 99%
    01:00 +24°C° 0,2 mm 1 m/s 721 mmHg 99%
    02:00 +24°C° 0,2 mm 1 m/s 721 mmHg 99%
    03:00 +24°C° 0,2 mm 1 m/s 721 mmHg 99%
    04:00 +24°C° 0,2 mm 1 m/s 720 mmHg 99%
    05:00 +24°C° 0 mm 1 m/s 721 mmHg 98%
    06:00 +24°C° 0 mm 1 m/s 721 mmHg 98%
    07:00 +24°C° 0 mm 1 m/s 722 mmHg 98%
    08:00 +25°C° 0 mm 1 m/s 722 mmHg 93%
    09:00 +26°C° 0 mm 1 m/s 722 mmHg 88%
    10:00 +27°C° 0 mm 1 m/s 723 mmHg 84%
    11:00 +28°C° 0,1 mm 1 m/s 722 mmHg 77%
    12:00 +30°C° 0,1 mm 1 m/s 722 mmHg 71%
    13:00 +31°C° 0,1 mm 1 m/s 721 mmHg 64%
    14:00 +30°C° 1,8 mm 1 m/s 721 mmHg 73%
    15:00 +29°C° 1,8 mm 1 m/s 720 mmHg 82%
    16:00 +29°C° 1,8 mm 1 m/s 720 mmHg 90%
    17:00 +27°C° 1 mm 1 m/s 720 mmHg 92%
    18:00 +24°C° 1 mm 0 m/s 721 mmHg 94%
    19:00 +23°C° 1 mm 0 m/s 721 mmHg 96%
    20:00 +23°C° 0,2 mm 0 m/s 722 mmHg 97%
    21:00 +22°C° 0,2 mm 0 m/s 722 mmHg 97%
    22:00 +22°C° 0,2 mm 0 m/s 722 mmHg 98%
    23:00 +22°C° 0,4 mm 0 m/s 722 mmHg 98%
    Voir plus